N9WFD Weather Reports


Display with metric or nautical units.
time (UTC)temp
F
wind
direction
speed
MPH
gust
MPH
rain 1hr
in
rain 24hr
in
rain mn
in
humidity
%
barometer
mb
20260905144555 75 172 1.0 8.0 0.00 0.01 0.00 89 1013.5
20260905143048 73 221 2.0 7.0 0.00 0.01 0.00 85 1013.3
20260905141545 73 150 3.0 10.0 0.00 0.01 0.00 85 1013.5
20260905140041 72 173 5.0 12.0 0.00 0.01 0.00 83 1013.3
20260905134537 72 90 3.0 11.0 0.00 0.01 0.00 82 1013.2
20260905133037 72 136 4.0 8.0 0.00 0.01 0.01 82 1013.2
20260905131533 72 85 0.0 2.0 0.00 0.01 0.01 81 1013.6
20260905130033 72 151 0.0 3.0 0.00 0.01 0.01 81 1013.1
20260905124532 72 152 1.0 4.0 0.00 0.01 0.01 82 1013.0
20260905123029 71 157 2.0 9.0 0.00 0.01 0.01 82 1012.7
20260905121529 71 160 1.0 12.0 0.00 0.01 0.01 82 1012.3
20260905120027 71 161 3.0 9.0 0.00 0.01 0.01 83 1012.2
20260905114528 71 179 3.0 9.0 0.00 0.01 0.01 83 1012.0
20260905113023 71 152 3.0 8.0 0.00 0.01 0.01 83 1011.8
20260905111523 71 142 2.0 9.0 0.00 0.01 0.01 83 1011.6
20260905110022 71 168 1.0 4.0 0.00 0.01 0.01 83 1011.3
20260905104520 72 146 2.0 5.0 0.00 0.01 0.01 83 1011.3
20260905103018 72 167 1.0 5.0 0.00 0.01 0.01 83 1011.4
20260905101516 72 153 0.0 4.0 0.00 0.01 0.01 83 1011.3
20260905100031 72 182 0.0 3.0 0.00 0.01 0.01 83 1011.4
20260905094518 73 158 1.0 4.0 0.00 0.01 0.01 83 1011.4
20260905093011 73 158 0.0 3.0 0.00 0.01 0.01 83 1011.2
20260905091512 73 158 0.0 3.0 0.00 0.01 0.01 84 1011.1
20260905090010 73 104 0.0 0.0 0.00 0.01 0.01 84 1010.9
20260905084509 73 104 0.0 0.0 0.00 0.01 0.01 84 1010.9
20260905083007 73 104 0.0 3.0 0.00 0.01 0.01 85 1010.8
20260905081506 73 202 0.0 0.0 0.00 0.01 0.01 85 1010.7
20260905080006 73 192 0.0 1.0 0.00 0.01 0.01 85 1011.0
20260905074506 73 199 0.0 1.0 0.00 0.01 0.01 85 1011.0
20260905073007 73 199 0.0 1.0 0.00 0.01 0.01 86 1010.9
20260905071533 74 199 0.0 1.0 0.00 0.01 0.01 86 1011.0
20260905070033 74 199 0.0 1.0 0.00 0.01 0.01 86 1011.0
20260905064531 74 199 0.0 1.0 0.00 0.01 0.01 86 1011.1
20260905063030 74 199 0.0 1.0 0.00 0.01 0.01 87 1011.2
20260905061530 74 199 0.0 1.0 0.00 0.01 0.01 88 1011.4
20260905060134 74 199 0.0 1.0 0.00 0.01 0.01 88 1011.3
20260905054556 75 199 0.0 2.0 0.00 0.01 0.01 88 1011.4
20260905053026 75 199 0.0 2.0 0.00 0.01 0.01 88 1011.4
20260905051525 75 189 0.0 0.0 0.00 0.01 0.01 89 1011.4
20260905050025 75 189 0.0 1.0 0.00 0.01 0.01 89 1011.4
20260905044523 75 189 0.0 2.0 0.00 0.01 0.01 89 1011.2
20260905043022 75 194 0.0 3.0 0.00 0.01 0.01 89 1011.3
20260905041523 75 169 1.0 5.0 0.00 0.01 0.01 89 1011.5
20260905040021 75 195 1.0 3.0 0.00 0.01 0.01 89 1011.2
20260905034600 76 202 1.0 5.0 0.00 0.01 0.01 89 1011.3
20260905033050 75 140 0.0 5.0 0.00 0.01 0.01 89 1011.5
20260905031549 76 185 1.0 7.0 0.00 0.01 0.01 89 1011.5
20260905030046 77 181 1.0 5.0 0.00 0.01 0.01 88 1011.6
20260905024556 77 221 2.0 10.0 0.00 0.01 0.01 84 1011.8
20260905023044 78 187 1.0 4.0 0.00 0.01 0.01 83 1011.9
20260905021516 79 211 1.0 9.0 0.00 0.01 0.01 82 1011.8
20260905020016 80 173 3.0 10.0 0.00 0.01 0.01 81 1011.5
20260905014510 83 164 3.0 8.0 0.00 0.01 0.01 82 1011.4
20260905013013 83 154 0.0 3.0 0.00 0.01 0.01 81 1011.4
20260905011511 84 150 0.0 4.0 0.00 0.01 0.01 80 1011.1
20260905010014 84 300 0.0 2.0 0.00 0.01 0.01 79 1010.6
20260905004506 85 300 0.0 0.0 0.00 0.01 0.01 78 1010.3
20260905003005 85 300 0.0 4.0 0.00 0.01 0.01 77 1010.0
20260905001505 85 31 0.0 4.0 0.01 0.01 0.01 77 1010.3
20260905000005 86 15 1.0 3.0 0.01 0.01 0.01 76 1010.3
20260904234534 86 330 0.0 4.0 0.01 0.01 0.01 74 1010.1
20260904233034 87 333 2.0 6.0 0.01 0.01 0.01 73 1009.9
20260904231529 87 312 2.0 5.0 0.00 0.00 0.00 71 1009.9
20260904230031 88 332 4.0 9.0 0.00 0.00 0.00 70 1009.9
20260904224527 88 342 4.0 10.0 0.00 0.00 0.00 69 1010.0
20260904223026 88 5 4.0 10.0 0.00 0.00 0.00 67 1010.3
20260904221523 89 353 3.0 10.0 0.00 0.00 0.00 66 1010.3
20260904220023 89 333 2.0 11.0 0.00 0.00 0.00 66 1010.2
20260904214522 89 337 4.0 9.0 0.00 0.00 0.00 65 1010.2
20260904213022 89 349 2.0 8.0 0.00 0.00 0.00 64 1010.2
20260904211518 89 329 4.0 11.0 0.00 0.00 0.00 65 1010.2
20260904210021 89 16 5.0 10.0 0.00 0.00 0.00 63 1010.1
20260904204516 89 330 8.0 13.0 0.00 0.00 0.00 63 1010.0
20260904203018 88 303 5.0 12.0 0.00 0.01 0.00 65 1010.3
20260904201508 88 331 3.0 10.0 0.00 0.01 0.00 66 1010.3
20260904200006 88 336 6.0 14.0 0.00 0.01 0.00 65 1010.6
20260904194502 87 335 5.0 11.0 0.00 0.01 0.00 67 1010.9
20260904193059 86 321 7.0 13.0 0.00 0.01 0.00 68 1011.3
20260904191553 85 311 8.0 15.0 0.00 0.01 0.00 69 1011.4
20260904190051 85 273 5.0 13.0 0.00 0.01 0.00 71 1011.8
20260904184545 83 294 5.0 13.0 0.00 0.01 0.00 73 1012.0
20260904183042 82 304 6.0 13.0 0.00 0.01 0.00 74 1012.3
20260904181536 81 305 7.0 12.0 0.00 0.01 0.00 77 1012.6
20260904180004 79 296 7.0 17.0 0.00 0.01 0.00 82 1012.6
20260904174600 77 274 8.0 14.0 0.00 0.01 0.00 87 1012.4
20260904173027 75 240 6.0 16.0 0.00 0.01 0.00 89 1012.7
20260904171525 74 256 6.0 14.0 0.00 0.01 0.00 89 1013.4
20260904170054 73 227 7.0 18.0 0.00 0.01 0.00 89 1014.1
20260904164550 74 314 2.0 11.0 0.00 0.01 0.00 88 1015.4
20260904163046 76 157 3.0 9.0 0.00 0.01 0.00 84 1015.5
20260904161547 76 180 7.0 13.0 0.00 0.01 0.00 84 1014.9
20260904160047 75 239 8.0 16.0 0.00 0.01 0.00 85 1014.8
20260904154541 76 113 5.0 21.0 0.00 0.01 0.00 85 1015.0
20260904153037 76 156 4.0 16.0 0.00 0.01 0.00 86 1015.1
20260904151538 76 182 9.0 18.0 0.00 0.01 0.00 86 1014.9
20260904150033 78 180 3.0 11.0 0.00 0.01 0.00 82 1014.9